Location: Fuscoli
(40.7000°N, 14.5500°E)
Time: 19:52:49
(UTC+00:00)

Daily predictions for brighter satellites

Satellite Brightness Start Highest point End
(mag) Time Altitude Azimuth Time Altitude Azimuth Time Altitude Azimuth
USA 186 1.1 18:37:30 10° SSE 18:40:09 83° E 18:42:38 10° N
Cosmos 1862 3.3 18:37:09 10° N 18:41:09 66° E 18:45:08 10° SSE
Cosmos 1553 Rocket 4.2 18:37:48 10° SSE 18:43:36 48° E 18:49:31 10° NNE
FALCON 9 DEB 3.6 18:42:18 10° NW 18:45:12 41° NE 18:48:00 11° ESE
Cosmos 2208 Rocket 4.1 18:41:07 10° NNW 18:46:33 74° ENE 18:51:59 10° SSE
FALCON 9 DEB 3.2 18:48:32 10° NW 18:51:30 51° NE 18:54:03 13° ESE
Cosmos 1242 Rocket 4.4 18:50:09 11° ESE 18:51:52 15° E 18:53:55 10° NE
Cosmos 841 Rocket 4.2 18:47:39 10° NNW 18:52:41 54° WSW 18:57:40 10° S
OBJECT-B 0.7 18:50:18 10° SSE 18:53:31 85° E 18:56:47 10° N
Cosmos 1437 Rocket 3.2 18:50:39 10° SSE 18:54:12 39° E 18:57:52 10° NNE
DELTA 2 R/B (1) 3.6 18:49:53 10° W 18:55:28 81° S 19:01:02 10° E
Resurs 01 Rocket 2.7 18:52:08 11° SE 18:55:42 28° ENE 18:59:31 10° N
Cosmos 1603 4.5 18:51:27 10° NNW 18:56:56 52° WSW 19:02:22 10° S
FALCON 9 DEB 3.4 18:57:17 10° NW 19:00:14 47° NE 19:02:29 16° ESE
Sich 1 4.1 18:59:29 10° NNE 19:03:15 28° ENE 19:06:02 15° SE
MOS 1 4.3 19:01:04 10° SSE 19:06:42 76° ENE 19:12:23 10° N
Cosmos 1782 4.5 19:07:44 15° ESE 19:08:51 17° E 19:11:26 10° NE
Lacrosse 5 rocket 4.3 19:11:51 10° WSW 19:12:30 10° WSW 19:13:10 10° SW
Cosmos 1503 Rocket 4.4 19:08:31 10° S 19:13:16 38° ESE 19:18:03 10° NE
MOS 1-B Rocket 4.4 19:06:22 10° NNE 19:13:57 84° WNW 19:20:22 10° SSW
SJ-6B 3.7 19:14:17 10° S 19:17:59 47° W 19:21:48 10° NNW
Cosmos 1151 Rocket 4.1 19:21:15 21° ESE 19:22:55 26° E 19:26:33 10° NNE
Cosmos 2278 Rocket 3.8 19:23:59 15° E 19:24:00 15° E 19:27:04 10° ENE
Terra 4.0 19:24:24 10° ENE 19:25:15 10° ENE 19:26:06 10° NE
SL-08 ROCKET BODY 4.4 19:20:59 10° N 19:26:54 82° W 19:32:44 10° S
Ariane Rocket 3.2 19:22:33 10° S 19:27:34 73° WSW 19:32:38 10° NNW
USA 290 3.3 19:26:27 10° N 19:29:22 30° ENE 19:30:10 26° E
Cosmos 1606 3.9 19:30:03 10° SSW 19:33:39 43° W 19:37:16 10° N
IRIS 3.8 19:31:57 10° W 19:34:22 79° N 19:35:32 32° E
FALCON 9 DEB 2.9 19:31:44 10° NW 19:34:45 68° SW 19:35:41 39° SSE
Cosmos 1844 Rocket 3.0 19:30:23 10° SSW 19:35:55 69° WNW 19:41:30 10° NNE
CZ-2C R/B 3.8 19:32:03 10° NNE 19:36:25 50° E 19:39:20 20° S
SPOT 1/Viking Rocket 4.0 19:36:10 24° SE 19:38:51 44° ENE 19:43:46 10° N
MetOp-B 4.3 19:36:53 23° SE 19:40:06 58° ENE 19:45:21 10° N
Cosmos 2084 4.0 19:41:37 31° ESE 19:41:37 31° ESE 19:45:19 10° NE
SL-4 R/B 2.3 19:39:00 10° WNW 19:43:27 75° SW 19:45:35 32° SE
ARIANE 5 R/B 3.6 19:43:07 25° E 19:44:21 30° ENE 19:48:07 10° N
Cosmos 1354 Rocket 3.9 19:39:17 10° S 19:44:25 65° ESE 19:49:37 10° NNE
Cosmos 1805 Rocket 3.7 19:40:15 10° NNW 19:44:35 74° W 19:47:34 20° S
X-37B 1.9 19:43:16 10° WNW 19:46:17 37° N 19:47:53 21° ENE
Cosmos 1386 Rocket 4.4 19:40:26 10° N 19:46:29 87° W 19:51:19 17° S
Cosmos 836 Rocket 4.5 19:44:11 10° NNW 19:49:31 89° WSW 19:52:30 27° SSE
Cosmos 883 Rocket 4.5 19:46:28 13° S 19:52:02 74° E 19:58:21 10° N
Milstar 3 4.2 19:39:31 10° SW 19:52:08 33° S 19:56:05 25° SE
SPOT 3 Rocket 3.5 19:49:01 23° SSE 19:52:20 85° WSW 19:57:32 10° NNW
Cosmos 1633 Rocket 3.4 19:48:51 10° N 19:53:07 48° E 19:54:18 37° ESE
Cosmos 1745 Rocket 4.1 19:47:31 10° N 19:53:43 75° W 19:58:40 16° S
Landsat 7 3.8 19:52:37 28° SSE 19:55:10 90° W 19:59:57 10° NNW
Cosmos 1812 4.1 19:56:30 23° ENE 19:56:30 23° ENE 19:59:00 10° NE
Cosmos 1844 4.3 19:50:31 10° SW 19:56:10 59° WNW 20:01:47 10° NNE
Cosmos 1709 Rocket 3.9 19:50:30 10° N 19:56:35 66° E 19:59:47 29° SSE
BREEZE-M DEB (TANK) 4.2 19:55:57 10° WNW 20:00:21 79° NNE 20:06:55 20° ESE
NOSS 3-3 (A) 3.7 19:55:30 10° SSW 20:01:03 67° ESE 20:07:19 10° NE
Cosmos 1328 Rocket 3.6 19:59:49 41° SSE 20:01:03 56° E 20:05:23 10° NNE
NOSS 3-3 (C) 3.7 19:55:36 10° SSW 20:01:09 66° ESE 20:07:25 10° NE
Cosmos 1470 Rocket 4.4 19:58:08 10° N 20:02:15 34° ENE 20:02:47 33° E
ATLAS 5 CENTAUR R/B 2.6 19:57:00 10° NNW 20:02:40 63° NE 20:05:41 32° ESE
IGS 5A 4.0 20:04:30 28° SSW 20:06:29 54° W 20:10:34 10° NNW
Meteor 1-26 Rocket 4.2 20:02:17 17° S 20:06:45 87° E 20:12:22 10° N
CARTOSAT-1 3.9 20:07:01 43° ESE 20:07:45 48° ENE 20:11:54 10° N
Cosmos 2315 Rocket 4.0 20:04:40 20° S 20:09:19 83° E 20:15:43 10° N
CRYOSAT 2 4.3 20:07:54 36° S 20:09:54 85° E 20:14:50 10° N
Cosmos 1833 Rocket 3.7 20:07:13 10° N 20:12:16 32° ENE 20:14:00 27° E
BREEZE-M R/B 4.3 20:11:31 10° WNW 20:13:33 21° NNW 20:15:12 12° NNE
Meteor 1-14 Rocket 4.4 20:08:35 10° N 20:14:24 60° ENE 20:16:14 41° SE
Cosmos 1666 4.3 20:15:02 10° NNE 20:17:20 22° NE 20:17:20 22° NE
Cosmos 1666 Rocket 3.7 20:14:19 10° NNW 20:18:42 70° W 20:19:58 44° SSW
Iridium 4 Rocket 4.1 20:22:02 42° ESE 20:23:07 47° E 20:28:42 10° NNE
Cosmos 1242 Rocket 4.4 20:24:04 15° SW 20:26:24 29° WNW 20:29:33 10° NNW
Cosmos 783 Rocket 4.4 20:22:58 10° NNW 20:28:14 89° ENE 20:29:28 54° SSE
Resurs 01 Rocket 3.4 20:29:42 17° SW 20:32:08 26° W 20:35:53 10° NW
BREEZE M DEB (TANK) 3.8 20:31:01 10° NW 20:33:46 20° N 20:34:07 19° NNE
Spot 2 Rocket 3.5 20:34:12 50° S 20:35:30 74° WSW 20:40:34 10° NNW
Cosmos 773 Rocket 3.9 20:30:45 10° NNW 20:36:05 83° ENE 20:37:01 61° SSE
SJ 16-02 2.3 20:38:19 35° ENE 20:38:19 35° ENE 20:41:18 10° NNE
Cosmos 2228 Rocket 4.4 20:40:06 28° ENE 20:40:06 28° ENE 20:42:52 10° NNE
DELTA 2 R/B (1) 3.8 20:36:21 10° W 20:41:43 51° SSW 20:41:51 51° SSW
Meteor 2-6 Rocket 4.0 20:41:13 60° SSE 20:42:12 78° E 20:47:41 10° NNE
COSMOS 2406 3.4 20:37:14 10° NNW 20:42:48 55° ENE 20:43:43 50° E
Cosmos 1782 4.4 20:43:16 24° WSW 20:44:51 32° WNW 20:48:29 10° NNW
Cosmos 2082 Rocket 3.3 20:40:34 10° N 20:45:30 30° ENE 20:46:28 29° ENE
Cosmos 1500 3.7 20:43:56 10° NNW 20:47:10 55° WNW 20:47:10 55° WNW
CZ-4C R/B 3.1 20:40:56 10° NNW 20:48:17 66° NE 20:51:18 41° ESE
ERS-1 Rocket 2.8 20:50:52 69° SSW 20:51:25 80° WSW 20:56:29 10° NNW
SPOT 5 2.9 20:52:52 69° SSW 20:53:24 79° WSW 20:58:37 10° NNW
H-2A R/B 3.8 20:54:22 10° NNE 20:57:49 59° NNE 20:57:49 59° NNE
Cosmos 1271 Rocket 3.8 21:00:22 41° NNE 21:00:22 41° NNE 21:03:04 10° NNE
Terra 1.7 21:02:23 85° NNW 21:02:23 85° NNW 21:07:02 10° NNW
Meteor 1-11 Rocket 3.9 20:56:24 10° N 21:02:19 58° ENE 21:02:44 57° E
Cosmos 2278 Rocket 2.3 21:05:44 47° SW 21:07:22 72° WNW 21:13:03 10° NNE
Cosmos 2327 Rocket 4.4 21:14:08 10° N 21:20:33 73° E 21:21:03 69° ESE
ARIANE 5 R/B 4.3 21:20:40 23° W 21:20:47 23° W 21:24:17 10° NW
X-37B 3.8 21:19:55 10° WNW 21:20:09 12° WNW 21:20:09 12° WNW
Meteor 1-10 Rocket 4.5 21:22:59 54° WSW 21:23:48 60° WNW 21:29:22 10° N
USA 308 4.4 21:20:46 10° NW 21:24:24 32° NNE 21:24:24 32° NNE
Cosmos 1869 Rocket 4.5 21:20:51 10° N 21:23:54 44° N 21:23:54 44° N
Cosmos 1536 4.3 21:21:23 10° N 21:23:48 34° NNE 21:23:48 34° NNE
Cosmos 1943 Rocket 3.8 21:30:26 22° ENE 21:30:26 22° ENE 21:32:59 10° NE
Cosmos 2154 Rocket 3.8 21:26:18 10° N 21:32:40 88° W 21:33:02 80° S
Cosmos 2184 Rocket 4.4 21:34:33 10° NNW 21:40:33 51° W 21:41:19 48° WSW
NOSS 3-4 (A) 3.8 21:38:48 10° NNW 21:45:56 79° NE 21:47:02 67° ESE
NOSS 3-4 (C) 3.8 21:38:54 10° NNW 21:46:02 79° NE 21:47:08 66° ESE
ATLAS 5 CENTAUR R/B 3.9 21:42:20 10° WNW 21:47:10 25° WSW 21:47:13 25° WSW
Cosmos 962 Rocket 4.4 21:45:56 10° N 21:51:48 75° NE 21:51:48 75° NE
Nadezhda 1 Rocket 4.4 21:51:52 51° WSW 21:52:45 55° W 21:58:55 10° N
Cosmos 1833 Rocket 3.7 21:51:04 10° NW 21:55:42 36° W 21:55:42 36° W
Cosmos 1238 Rocket 4.1 21:52:15 10° N 21:57:51 57° NE 21:57:51 57° NE
USA 215 4.4 21:55:02 19° E 21:59:05 37° NNE 22:04:59 10° NW
ATLAS 2AS CENTAUR R/B 3.0 21:52:20 10° NNW 21:59:34 59° NE 22:00:32 54° E
Cosmos 2297 4.1 22:03:58 57° NE 22:03:58 57° NE 22:08:27 10° NNE
Cosmos 2181 Rocket 4.1 22:07:22 66° NE 22:07:22 66° NE 22:12:51 10° NNE
SJ 16-02 3.7 22:15:15 17° WNW 22:15:52 17° WNW 22:18:49 10° NNW
Cosmos 1937 Rocket 4.3 22:24:06 48° N 22:24:06 48° N 22:27:50 10° NNE
Cosmos 1680 Rocket 4.3 22:17:31 10° NNW 22:21:27 47° NW 22:21:27 47° NW
Cosmos 2341 Rocket 4.1 22:17:04 10° NNW 22:23:08 69° WNW 22:23:08 69° WNW
Cosmos 2366 rocket 4.1 22:18:30 10° N 22:24:07 71° NE 22:24:07 71° NE
Cosmos 1818 4.4 22:22:50 10° NNW 22:27:40 44° NE 22:27:40 44° NE
Cosmos 2082 Rocket 3.4 22:24:28 10° NW 22:28:19 34° WNW 22:28:19 34° WNW
CZ-4C R/B 4.0 22:30:05 10° NW 22:36:28 32° WSW 22:36:28 32° WSW
Cosmos 2218 Rocket 4.1 22:36:25 10° N 22:42:06 70° NW 22:42:06 70° NW
Nadezhda 3 Rocket 4.2 23:02:11 63° NE 23:02:11 63° NE 23:07:42 10° NNE
Cosmos 2369 Rocket 2.7 23:03:27 56° NNE 23:03:27 56° NNE 23:07:51 10° NNE
Cosmos 1943 Rocket 3.2 23:11:55 39° NW 23:11:55 39° NW 23:16:59 10° N
Cosmos 1867 4.4 23:18:57 46° NE 23:18:57 46° NE 23:22:47 10° NE
Cosmos 1607 4.1 23:19:25 69° ENE 23:19:25 69° ENE 23:25:08 10° NE
Meteor 2-4 Rocket 4.4 23:20:31 49° NW 23:20:31 49° NW 23:25:17 10° N
ATLAS CENTAUR R/B 4.0 23:33:01 14° NE 23:33:01 14° NE 23:33:40 10° NE
Cosmos 1125 Rocket 4.2 23:35:51 51° NNE 23:35:51 51° NNE 23:39:44 10° NNE
Cosmos 1656 Rocket 4.1 23:39:03 56° N 23:39:03 56° N 23:43:34 10° NNE
SeaSat 1 3.5 23:34:25 10° NNE 23:38:19 40° NNW 23:38:19 40° NNW
USA 215 3.2 23:42:21 72° W 23:42:21 72° W 23:48:18 10° NW
Cosmos 1833 4.5 23:42:37 10° NNW 23:47:33 66° N 23:47:33 66° N
ATLAS 2AS CENTAUR R/B 4.1 23:44:06 10° NW 23:47:56 24° W 23:47:56 24° W
CZ-2D R/B 3.4 23:49:26 10° NE 23:53:55 30° E 23:53:55 30° E
